Location: ???? ????
(31.2831°N, 45.5190°E)
Time: 09:04:28
(UTC+00:00)

Cosmos 1242 Rocket - Pass Details

Date: 24 February 2021
Orbit: 447 x 484 km, 81.2° (Epoch: 15 April)

Event Time Altitude Azimuth Distance (km) Brightness Sun altitude
Rises 15:39:51 0° 347° (NNW) 2,497 6.3 -10.9°
Reaches altitude 10° 15:41:57 10° 343° (NNW) 1,625 5.4 -11.3°
Maximum altitude 15:45:26 56° 265° (W) 567 3.3 -12.1°
Drops below altitude 10° 15:48:56 10° 186° (S) 1,634 5.3 -12.8°
Sets 15:51:03 0° 182° (S) 2,514 6.3 -13.3°
